This is the latest recevied weather packets stored in our database for station/object G8SIB-9. If no packets are shown the sender has not sent any weather packets the latest 10 day(s).
| Time | Temp. | Humidity | Pressure | Rain* | Wind** | Luminosity | Snow |
|---|---|---|---|---|---|---|---|
| 1778078277 | 12.22° C | 60% | 1009.9 hPa | 0 mm | - | - | - |
| 1778077676 | 12.78° C | 60% | 1009.9 hPa | 0 mm | - | - | - |
| 1778077075 | 12.78° C | 60% | 1009.9 hPa | 0 mm | - | - | - |
| 1778076474 | 12.78° C | 60% | 1009.8 hPa | 0 mm | - | - | - |
| 1778075873 | 12.22° C | 59% | 1009.8 hPa | 0 mm | - | - | - |
| 1778075273 | 12.78° C | 59% | 1009.9 hPa | 0 mm | - | - | - |
| 1778074072 | 12.78° C | 57% | 1009.8 hPa | 0 mm | - | - | - |
| 1778073471 | 12.78° C | 59% | 1009.8 hPa | 0 mm | - | - | - |
| 1778072869 | 12.78° C | 59% | 1009.7 hPa | 0 mm | - | - | - |
| 1778072269 | 12.78° C | 55% | 1009.7 hPa | 0 mm | - | - | - |
| 1778071668 | 12.78° C | 56% | 1009.7 hPa | 0 mm | - | - | - |
| 1778071068 | 13.33° C | 55% | 1009.5 hPa | 0 mm | - | - | - |
| 1778070466 | 13.33° C | 54% | 1009.6 hPa | 0 mm | - | - | - |
| 1778069865 | 13.33° C | 55% | 1009.5 hPa | 0 mm | - | - | - |
| 1778069264 | 13.89° C | 54% | 1009.4 hPa | 0 mm | - | - | - |
| 1778068664 | 14.44° C | 56% | 1009.6 hPa | 0 mm | - | - | - |
| 1778068063 | 13.89° C | 58% | 1009.6 hPa | 0 mm | - | - | - |
| 1778067463 | 15° C | 58% | 1009.6 hPa | 0 mm | - | - | - |
| 1778066862 | 12.78° C | 66% | 1009.6 hPa | 0 mm | - | - | - |
| 1778066262 | 11.67° C | 69% | 1009.7 hPa | 0 mm | - | - | - |
| 1778065661 | 11.67° C | 74% | 1009.7 hPa | 0 mm | - | - | - |
| 1778065060 | 12.22° C | 74% | 1009.8 hPa | 0 mm | - | - | - |
| 1778064460 | 12.22° C | 70% | 1009.8 hPa | 0 mm | - | - | - |
| 1778063859 | 11.67° C | 67% | 1009.7 hPa | 0 mm | - | - | - |
| 1778063258 | 11.67° C | 67% | 1009.7 hPa | 0 mm | - | - | - |
* Rain latest hour (hover to see other rain measurements)
** Current wind speed in m/s (hover to see current wind gust speed)